Time,TemperatureF,DewpointF,PressureIn,WindDirection,WindDirectionDegrees,WindSpeedMPH,WindSpeedGustMPH,Humidity,HourlyPrecipIn,Conditions,Clouds,dailyrainin,SoftwareType,DateUTC
2013-02-07 00:02:00,33.0,30.0,30.09,SE,125,6.0,14.0,90,0.00,,,0.00,,2013-02-07 06:02:00,
2013-02-07 00:11:00,33.0,30.0,30.09,SE,125,6.0,14.0,90,0.00,,,0.00,,2013-02-07 06:11:00,
2013-02-07 00:22:00,33.0,30.0,30.09,East,92,4.0,10.0,89,0.00,,,0.00,,2013-02-07 06:22:00,
2013-02-07 00:32:00,33.0,30.0,30.09,SSW,192,4.0,11.0,90,0.00,,,0.00,,2013-02-07 06:32:00,
2013-02-07 00:43:00,33.0,30.0,30.09,SSW,192,4.0,11.0,90,0.00,,,0.00,,2013-02-07 06:43:00,
2013-02-07 00:52:00,33.0,30.0,30.09,ESE,122,4.0,9.0,90,0.00,,,0.00,,2013-02-07 06:52:00,
2013-02-07 01:01:00,33.0,30.0,30.10,ESE,102,3.0,7.0,90,0.00,,,0.00,,2013-02-07 07:01:00,
2013-02-07 01:11:00,33.0,30.0,30.10,ESE,102,3.0,7.0,90,0.00,,,0.00,,2013-02-07 07:11:00,
2013-02-07 01:22:00,33.0,30.0,30.11,SW,214,3.0,7.0,90,0.00,,,0.00,,2013-02-07 07:22:00,
2013-02-07 01:32:00,33.0,30.0,30.10,SE,128,2.0,7.0,90,0.00,,,0.00,,2013-02-07 07:32:00,
2013-02-07 01:42:00,33.0,30.0,30.10,SE,128,2.0,7.0,90,0.00,,,0.00,,2013-02-07 07:42:00,
2013-02-07 01:52:00,33.0,30.0,30.11,SSE,157,3.0,8.0,90,0.00,,,0.00,,2013-02-07 07:52:00,
2013-02-07 02:01:00,33.0,30.0,30.10,SE,145,4.0,8.0,90,0.00,,,0.00,,2013-02-07 08:01:00,
2013-02-07 02:11:00,33.0,30.0,30.10,SE,145,4.0,8.0,90,0.00,,,0.00,,2013-02-07 08:11:00,
2013-02-07 02:21:00,33.0,30.0,30.09,East,101,3.0,8.0,90,0.00,,,0.00,,2013-02-07 08:21:00,
2013-02-07 02:32:00,33.0,31.0,30.10,SSE,164,4.0,8.0,91,0.00,,,0.00,,2013-02-07 08:32:00,
2013-02-07 02:42:00,33.0,31.0,30.10,SSE,164,4.0,8.0,91,0.00,,,0.00,,2013-02-07 08:42:00,
2013-02-07 02:52:00,33.0,31.0,30.09,East,94,3.0,9.0,91,0.00,,,0.00,,2013-02-07 08:52:00,
2013-02-07 03:02:00,33.0,31.0,30.09,SE,134,3.0,6.0,92,0.00,,,0.00,,2013-02-07 09:02:00,
2013-02-07 03:11:00,33.0,31.0,30.09,SE,134,3.0,6.0,92,0.00,,,0.00,,2013-02-07 09:11:00,
2013-02-07 03:21:00,32.0,30.0,30.09,ESE,120,2.0,6.0,93,0.01,,,0.01,,2013-02-07 09:21:00,
2013-02-07 03:32:00,32.0,30.0,30.08,ESE,122,5.0,10.0,93,0.03,,,0.03,,2013-02-07 09:32:00,
2013-02-07 03:41:00,32.0,30.0,30.08,ESE,122,5.0,10.0,93,0.03,,,0.03,,2013-02-07 09:41:00,
2013-02-07 03:52:00,32.0,30.0,30.06,ESE,114,5.0,10.0,94,0.04,,,0.04,,2013-02-07 09:52:00,
2013-02-07 04:01:00,32.0,30.0,30.07,SSE,158,3.0,8.0,94,0.06,,,0.06,,2013-02-07 10:01:00,
2013-02-07 04:11:00,32.0,30.0,30.07,SSE,158,3.0,8.0,94,0.06,,,0.06,,2013-02-07 10:11:00,
2013-02-07 04:22:00,32.0,31.0,30.06,East,97,4.0,10.0,95,0.05,,,0.07,,2013-02-07 10:22:00,
2013-02-07 04:32:00,32.0,31.0,30.06,SE,124,4.0,7.0,95,0.05,,,0.08,,2013-02-07 10:32:00,
2013-02-07 04:42:00,32.0,31.0,30.06,SE,124,4.0,7.0,95,0.05,,,0.08,,2013-02-07 10:42:00,
2013-02-07 04:51:00,32.0,31.0,30.06,ESE,119,3.0,10.0,95,0.04,,,0.08,,2013-02-07 10:51:00,
2013-02-07 05:01:00,32.0,31.0,30.07,SE,130,4.0,7.0,95,0.03,,,0.09,,2013-02-07 11:01:00,
2013-02-07 05:11:00,32.0,31.0,30.07,SE,130,4.0,7.0,95,0.03,,,0.09,,2013-02-07 11:11:00,
2013-02-07 05:22:00,32.0,31.0,30.06,ESE,111,3.0,7.0,95,0.02,,,0.09,,2013-02-07 11:22:00,
2013-02-07 05:32:00,32.0,31.0,30.06,ESE,117,3.0,7.0,96,0.02,,,0.10,,2013-02-07 11:32:00,
2013-02-07 05:44:00,32.0,31.0,30.06,ESE,117,3.0,7.0,96,0.02,,,0.10,,2013-02-07 11:44:00,
2013-02-07 05:52:00,32.0,31.0,30.06,SE,125,4.0,12.0,95,0.02,,,0.10,,2013-02-07 11:52:00,
2013-02-07 06:02:00,32.0,31.0,30.06,ESE,120,4.0,9.0,95,0.02,,,0.11,,2013-02-07 12:02:00,
2013-02-07 06:11:00,32.0,31.0,30.06,ESE,120,4.0,9.0,95,0.02,,,0.11,,2013-02-07 12:11:00,
2013-02-07 06:22:00,32.0,31.0,30.05,ESE,117,4.0,9.0,95,0.03,,,0.12,,2013-02-07 12:22:00,
2013-02-07 06:32:00,32.0,31.0,30.05,SSE,148,4.0,7.0,95,0.03,,,0.13,,2013-02-07 12:32:00,
2013-02-07 06:42:00,32.0,31.0,30.05,SSE,148,4.0,7.0,95,0.03,,,0.13,,2013-02-07 12:42:00,
2013-02-07 06:52:00,32.0,31.0,30.05,East,94,4.0,9.0,95,0.03,,,0.13,,2013-02-07 12:52:00,
2013-02-07 08:32:00,32.0,31.0,30.02,SE,129,4.0,8.0,96,0.00,,,0.13,,2013-02-07 14:32:00,
2013-02-07 08:42:00,32.0,31.0,30.02,SE,129,4.0,8.0,96,0.00,,,0.13,,2013-02-07 14:42:00,
2013-02-07 08:52:00,32.0,31.0,30.02,SSE,166,4.0,10.0,95,0.00,,,0.13,,2013-02-07 14:52:00,
2013-02-07 09:02:00,32.0,31.0,30.02,South,187,3.0,6.0,95,0.00,,,0.13,,2013-02-07 15:02:00,
2013-02-07 09:11:00,32.0,31.0,30.02,South,187,3.0,6.0,95,0.00,,,0.13,,2013-02-07 15:11:00,
2013-02-07 09:22:00,32.0,31.0,30.01,SE,140,4.0,7.0,96,0.00,,,0.13,,2013-02-07 15:22:00,
2013-02-07 09:32:00,32.0,31.0,30.01,East,96,5.0,9.0,96,0.01,,,0.14,,2013-02-07 15:32:00,
2013-02-07 09:42:00,32.0,31.0,30.01,East,96,5.0,9.0,96,0.01,,,0.14,,2013-02-07 15:42:00,
2013-02-07 09:52:00,32.0,31.0,30.01,ESE,121,3.0,9.0,96,0.01,,,0.14,,2013-02-07 15:52:00,
2013-02-07 10:01:00,32.0,31.0,30.00,ESE,123,5.0,8.0,96,0.02,,,0.15,,2013-02-07 16:01:00,
2013-02-07 10:11:00,32.0,31.0,30.00,ESE,123,5.0,8.0,96,0.02,,,0.15,,2013-02-07 16:11:00,
2013-02-07 10:21:00,32.0,31.0,30.01,SE,135,3.0,7.0,96,0.02,,,0.16,,2013-02-07 16:21:00,
2013-02-07 10:32:00,32.0,31.0,30.01,SSE,150,2.0,6.0,96,0.04,,,0.18,,2013-02-07 16:32:00,
2013-02-07 10:42:00,32.0,31.0,30.01,SSE,150,2.0,6.0,96,0.04,,,0.18,,2013-02-07 16:42:00,
2013-02-07 10:52:00,32.0,31.0,30.00,ESE,119,4.0,7.0,96,0.05,,,0.19,,2013-02-07 16:52:00,
2013-02-07 11:01:00,32.0,31.0,30.00,East,99,0.0,4.0,96,0.05,,,0.20,,2013-02-07 17:01:00,
2013-02-07 11:11:00,32.0,31.0,30.00,East,99,0.0,4.0,96,0.05,,,0.20,,2013-02-07 17:11:00,
2013-02-07 11:21:00,32.0,31.0,30.00,ESE,116,0.0,0.0,96,0.05,,,0.21,,2013-02-07 17:21:00,
2013-02-07 11:32:00,32.0,31.0,29.99,ESE,108,0.0,0.0,96,0.04,,,0.22,,2013-02-07 17:32:00,
2013-02-07 11:43:00,32.0,31.0,29.99,ESE,108,0.0,0.0,96,0.04,,,0.22,,2013-02-07 17:43:00,
2013-02-07 11:52:00,32.0,31.0,29.98,ESE,117,0.0,0.0,96,0.04,,,0.23,,2013-02-07 17:52:00,
2013-02-07 12:01:00,32.0,31.0,29.97,ESE,103,0.0,0.0,96,0.03,,,0.23,,2013-02-07 18:01:00,
2013-02-07 12:11:00,32.0,31.0,29.97,ESE,103,0.0,0.0,96,0.03,,,0.23,,2013-02-07 18:11:00,
2013-02-07 12:23:00,32.0,31.0,29.96,East,91,3.0,7.0,96,0.03,,,0.24,,2013-02-07 18:23:00,
2013-02-07 12:32:00,32.0,31.0,29.96,ESE,119,2.0,6.0,96,0.03,,,0.25,,2013-02-07 18:32:00,
2013-02-07 12:42:00,32.0,31.0,29.96,ESE,119,2.0,6.0,96,0.03,,,0.25,,2013-02-07 18:42:00,
2013-02-07 12:52:00,32.0,31.0,29.95,ESE,111,4.0,7.0,96,0.03,,,0.26,,2013-02-07 18:52:00,
2013-02-07 13:01:00,32.0,31.0,29.94,East,94,3.0,8.0,96,0.04,,,0.27,,2013-02-07 19:01:00,
2013-02-07 13:11:00,32.0,31.0,29.94,East,94,3.0,8.0,96,0.04,,,0.27,,2013-02-07 19:11:00,
2013-02-07 13:22:00,32.0,31.0,29.93,ESE,107,1.0,6.0,96,0.03,,,0.27,,2013-02-07 19:22:00,
2013-02-07 13:32:00,32.0,31.0,29.93,East,97,1.0,5.0,96,0.03,,,0.28,,2013-02-07 19:32:00,
2013-02-07 13:42:00,32.0,31.0,29.93,East,97,1.0,5.0,96,0.03,,,0.28,,2013-02-07 19:42:00,
2013-02-07 13:52:00,32.0,31.0,29.93,ESE,119,1.0,4.0,97,0.03,,,0.28,,2013-02-07 19:52:00,
2013-02-07 14:01:00,32.0,31.0,29.92,SE,124,0.0,2.0,97,0.04,,,0.31,,2013-02-07 20:01:00,
2013-02-07 14:11:00,32.0,31.0,29.92,SE,124,0.0,2.0,97,0.04,,,0.31,,2013-02-07 20:11:00,
2013-02-07 14:22:00,32.0,31.0,29.90,SE,124,0.0,1.0,97,0.05,,,0.32,,2013-02-07 20:22:00,
2013-02-07 14:31:00,32.0,31.0,29.91,ESE,105,1.0,3.0,97,0.05,,,0.33,,2013-02-07 20:31:00,
2013-02-07 14:42:00,32.0,31.0,29.91,ESE,105,1.0,3.0,97,0.05,,,0.33,,2013-02-07 20:42:00,
2013-02-07 14:52:00,32.0,31.0,29.90,ESE,105,0.0,2.0,97,0.04,,,0.33,,2013-02-07 20:52:00,
2013-02-07 15:02:00,32.0,31.0,29.89,ESE,105,0.0,1.0,97,0.03,,,0.34,,2013-02-07 21:02:00,
2013-02-07 15:11:00,32.0,31.0,29.89,ESE,105,0.0,1.0,97,0.03,,,0.34,,2013-02-07 21:11:00,
2013-02-07 15:21:00,32.0,31.0,29.89,ESE,105,0.0,2.0,97,0.02,,,0.34,,2013-02-07 21:21:00,
2013-02-07 15:32:00,32.0,31.0,29.88,ESE,105,0.0,0.0,97,0.01,,,0.34,,2013-02-07 21:32:00,
2013-02-07 15:42:00,32.0,31.0,29.88,ESE,105,0.0,0.0,97,0.01,,,0.34,,2013-02-07 21:42:00,
2013-02-07 15:52:00,32.0,31.0,29.88,ESE,105,0.0,0.0,97,0.01,,,0.34,,2013-02-07 21:52:00,
2013-02-07 16:02:00,32.0,31.0,29.88,ESE,105,0.0,1.0,97,0.01,,,0.35,,2013-02-07 22:02:00,
2013-02-07 16:11:00,32.0,31.0,29.88,ESE,105,0.0,1.0,97,0.01,,,0.35,,2013-02-07 22:11:00,
2013-02-07 16:21:00,32.0,31.0,29.88,East,94,0.0,0.0,97,0.01,,,0.35,,2013-02-07 22:21:00,
2013-02-07 16:32:00,32.0,31.0,29.88,East,95,0.0,0.0,97,0.01,,,0.35,,2013-02-07 22:32:00,
2013-02-07 16:42:00,32.0,31.0,29.88,East,95,0.0,0.0,97,0.01,,,0.35,,2013-02-07 22:42:00,
2013-02-07 16:51:00,32.0,31.0,29.88,WSW,258,0.0,4.0,97,0.00,,,0.35,,2013-02-07 22:51:00,
2013-02-07 17:01:00,32.0,31.0,29.88,WSW,258,0.0,0.0,97,0.00,,,0.35,,2013-02-07 23:01:00,
2013-02-07 17:11:00,32.0,31.0,29.88,WSW,258,0.0,0.0,97,0.00,,,0.35,,2013-02-07 23:11:00,
2013-02-07 17:21:00,32.0,31.0,29.88,WSW,258,0.0,1.0,97,0.00,,,0.35,,2013-02-07 23:21:00,
2013-02-07 17:32:00,32.0,31.0,29.88,West,273,0.0,1.0,97,0.00,,,0.35,,2013-02-07 23:32:00,
2013-02-07 17:41:00,32.0,31.0,29.88,West,273,0.0,1.0,97,0.00,,,0.35,,2013-02-07 23:41:00,
2013-02-07 17:52:00,32.0,31.0,29.89,West,273,0.0,1.0,97,0.00,,,0.35,,2013-02-07 23:52:00,
2013-02-07 18:01:00,32.0,31.0,29.90,North,360,0.0,3.0,97,0.00,,,0.35,,2013-02-08 00:01:00,
2013-02-07 18:11:00,32.0,31.0,29.90,North,360,0.0,3.0,97,0.00,,,0.35,,2013-02-08 00:11:00,
2013-02-07 18:21:00,32.0,31.0,29.90,NW,319,0.0,2.0,97,0.00,,,0.35,,2013-02-08 00:21:00,
2013-02-07 18:32:00,32.0,31.0,29.90,NNW,336,1.0,3.0,97,0.00,,,0.35,,2013-02-08 00:32:00,
2013-02-07 18:42:00,32.0,31.0,29.90,NNW,336,1.0,3.0,97,0.00,,,0.35,,2013-02-08 00:42:00,
2013-02-07 18:52:00,32.0,31.0,29.91,NNW,338,1.0,3.0,97,0.00,,,0.35,,2013-02-08 00:52:00,
2013-02-07 19:01:00,32.0,31.0,29.91,NW,323,0.0,3.0,97,0.00,,,0.35,,2013-02-08 01:01:00,
2013-02-07 19:11:00,32.0,31.0,29.91,NW,323,0.0,3.0,97,0.00,,,0.35,,2013-02-08 01:11:00,
2013-02-07 19:21:00,32.0,31.0,29.92,NNW,346,1.0,4.0,97,0.00,,,0.35,,2013-02-08 01:21:00,
2013-02-07 19:32:00,32.0,31.0,29.92,North,11,1.0,4.0,97,0.00,,,0.35,,2013-02-08 01:32:00,
2013-02-07 19:41:00,32.0,31.0,29.92,North,11,1.0,4.0,97,0.00,,,0.35,,2013-02-08 01:41:00,
2013-02-07 19:51:00,32.0,31.0,29.92,NNW,338,0.0,4.0,97,0.00,,,0.35,,2013-02-08 01:51:00,
2013-02-07 20:01:00,32.0,31.0,29.92,North,349,1.0,3.0,97,0.00,,,0.35,,2013-02-08 02:01:00,
2013-02-07 20:11:00,32.0,31.0,29.92,North,349,1.0,3.0,97,0.00,,,0.35,,2013-02-08 02:11:00,
2013-02-07 20:21:00,32.0,31.0,29.93,NNW,332,1.0,3.0,97,0.00,,,0.35,,2013-02-08 02:21:00,
2013-02-07 20:32:00,32.0,31.0,29.93,NNW,332,1.0,3.0,97,0.00,,,0.35,,2013-02-08 02:32:00,
2013-02-07 20:42:00,32.0,31.0,29.93,NNW,332,1.0,3.0,97,0.00,,,0.35,,2013-02-08 02:42:00,
2013-02-07 20:52:00,32.0,31.0,29.94,NNE,13,1.0,4.0,97,0.00,,,0.35,,2013-02-08 02:52:00,
2013-02-07 21:02:00,32.0,31.0,29.95,NNW,331,1.0,5.0,97,0.00,,,0.35,,2013-02-08 03:02:00,
2013-02-07 21:12:00,32.0,31.0,29.95,NNW,331,1.0,5.0,97,0.00,,,0.35,,2013-02-08 03:12:00,
2013-02-07 21:22:00,32.0,31.0,29.95,NW,316,1.0,4.0,97,0.00,,,0.35,,2013-02-08 03:22:00,
2013-02-07 21:32:00,32.0,31.0,29.96,NNW,328,2.0,4.0,97,0.00,,,0.35,,2013-02-08 03:32:00,
2013-02-07 21:41:00,32.0,31.0,29.96,NNW,328,2.0,4.0,97,0.00,,,0.35,,2013-02-08 03:41:00,
2013-02-07 21:52:00,31.0,30.0,29.96,NNW,337,2.0,8.0,97,0.00,,,0.35,,2013-02-08 03:52:00,
2013-02-07 22:01:00,30.0,29.0,29.97,North,5,2.0,6.0,96,0.00,,,0.35,,2013-02-08 04:01:00,
2013-02-07 22:11:00,30.0,29.0,29.97,North,5,2.0,6.0,96,0.00,,,0.35,,2013-02-08 04:11:00,
2013-02-07 22:21:00,30.0,29.0,29.97,NW,323,2.0,6.0,96,0.00,,,0.35,,2013-02-08 04:21:00,
2013-02-07 22:32:00,30.0,29.0,29.97,NW,324,2.0,5.0,96,0.00,,,0.35,,2013-02-08 04:32:00,
2013-02-07 22:42:00,30.0,29.0,29.97,NW,324,2.0,5.0,96,0.00,,,0.35,,2013-02-08 04:42:00,
2013-02-07 22:51:00,29.0,28.0,29.97,WNW,300,2.0,6.0,96,0.00,,,0.35,,2013-02-08 04:51:00,
2013-02-07 23:02:00,29.0,28.0,29.98,North,355,2.0,5.0,96,0.00,,,0.35,,2013-02-08 05:02:00,
2013-02-07 23:11:00,29.0,28.0,29.98,North,355,2.0,5.0,96,0.00,,,0.35,,2013-02-08 05:11:00,
2013-02-07 23:22:00,29.0,28.0,29.98,North,355,1.0,8.0,96,0.00,,,0.35,,2013-02-08 05:22:00,
2013-02-07 23:32:00,29.0,28.0,29.98,NNW,331,2.0,6.0,96,0.01,,,0.36,,2013-02-08 05:32:00,
2013-02-07 23:42:00,29.0,28.0,29.98,NNW,331,2.0,6.0,96,0.01,,,0.36,,2013-02-08 05:42:00,
2013-02-07 23:52:00,28.0,27.0,30.00,North,355,2.0,6.0,96,0.01,,,0.36,,2013-02-08 05:52:00,